Miscellaneous Local Product
Issued by NWS Hastings, NE

Home | Current Version | Previous Version | Text Only | Print | Product List | Glossary Off
Versions: 1 2 3 4 5 6 7 8 9 10 11 12 13 14 15 16 17 18 19 20 21 22 23 24 25 26 27 28 29 30 31 32 33 34 35 36 37 38 39 40 41 42 43 44 45 46 47 48 49 50

451
AXUS43 KGID 240802
MISGRI

GID CWA HOURLY WEATHER ROUNDUP
NATIONAL WEATHER SERVICE HASTINGS NE
300 AM CDT TUE MAY 24 2016

NOTE: "FAIR" INDICATES FEW OR NO CLOUDS BELOW 12,000 FEET WITH NO
SIGNIFICANT WEATHER AND/OR OBSTRUCTIONS TO VISIBILITY.

...SOUTH CENTRAL NEBRASKA...

CITY           SKY/WX    TMP DP  RH WIND       PRES   REMARKS
GRAND ISLAND   CLOUDY    61  59  93 S8        29.84R
HASTINGS       CLOUDY    62  59  90 S8        29.83R
KEARNEY        CLOUDY    61  57  88 NW9       29.86R
ORD            FOG       53  53 100 S3        29.81R VSB 1/4
YORK           CLOUDY    59  59 100 SE6       29.83S
AURORA         CLOUDY    60  60  99 S6        29.84R
LEXINGTON      CLOUDY    52  48  87 S5        29.85R
HOLDREGE       CLOUDY    62  60  94 SE8       29.83S
HEBRON         CLOUDY    61  56  85 N3        29.79F

...NEBRASKA PANHANDLE...

CITY           SKY/WX    TMP DP  RH WIND       PRES   REMARKS
CHADRON        CLEAR     43  39  86 W9        29.85S
ALLIANCE       CLEAR     36  35  96 SW3       29.89S
SCOTTSBLUFF    CLEAR     41  39  93 N5        29.90F
SIDNEY         MOCLDY    43  40  89 W7        29.90S

...WESTERN AND NORTH CENTRAL NEBRASKA...

CITY           SKY/WX    TMP DP  RH WIND       PRES   REMARKS
VALENTINE      CLEAR     50  42  74 W9        29.81F
AINSWORTH      CLEAR     54  44  70 W8        29.80F
ONEILL         CLEAR     55  50  83 S5        29.79F
BROKEN BOW     CLEAR     48  45  89 CALM      29.84R
IMPERIAL       LGT RAIN  55  47  74 NW12G26   29.88R
NORTH PLATTE   CLEAR     50  47  89 S6        29.86R
MCCOOK         CLOUDY    55  47  74 CALM      29.83R

...EASTERN NEBRASKA...

CITY           SKY/WX    TMP DP  RH WIND       PRES   REMARKS
NORFOLK        CLEAR     58  55  90 S7        29.81R
SO SIOUX CITY    N/A     63  60  90 SE7       29.79F
TEKAMAH        PTCLDY    61  59  93 SE10      29.82S
COLUMBUS       CLOUDY    57  50  77 CALM      29.84R
ALBION         PTCLDY    57  55  91 CALM      29.83R
OMAHA EPPLEY   CLOUDY    62  58  86 S5        29.85R
MILLARD        CLOUDY    60  58  94 CALM      29.84R
LINCOLN        CLOUDY    60  58  92 SE5       29.83S
NEBRASKA CITY  CLOUDY    63  63 100 S7        29.84F
BEATRICE       CLOUDY    65  62  89 S10       29.82F
FALLS CITY     CLOUDY    67  61  81 SW9       29.86R

...NORTHERN KANSAS...

CITY           SKY/WX    TMP DP  RH WIND       PRES   REMARKS
GOODLAND       MOCLDY    53  46  77 NE6       29.82F
HILL CITY      TSTM      61  59  93 NE17      29.82F FOG
NORTON         CLOUDY    63  57  82 SE10      29.84R
PHILLIPSBURG   PTCLDY    63  63 100 S9        29.82F
SMITH CENTER   MOCLDY    61  57  88 SW5       29.86R
BELOIT         CLOUDY    66  54  63 N16G37    29.82F
HAYS           CLOUDY    66  55  68 E7        29.79F
RUSSELL        LGT RAIN  64  57  78 NE15      29.81F
CONCORDIA      TSTM      62  58  86 S16       29.83F
SALINA         CLOUDY    70  67  90 SE7       29.84R
TOPEKA         PTCLDY    63  60  90 E5        29.86F



USA.gov is the U.S. government's official web portal to all federal, state and local government web resources and services.